| time (UTC) | temp F | wind direction | speed MPH | gust MPH | rain 1hr in | rain 24hr in | rain mn in | humidity % | barometer mb |
| 20260509223012 | 67 | 360 | 3.0 | 6.0 | 0.00 | 0.00 | 0.00 | 66 | 1006.6 |
| 20260509221515 | 67 | 71 | 4.0 | 7.0 | 0.00 | 0.00 | 0.00 | 66 | 1006.6 |
| 20260509220021 | 67 | 59 | 1.0 | 10.0 | 0.00 | 0.00 | 0.00 | 66 | 1006.6 |
| 20260509214515 | 66 | 96 | 4.0 | 8.0 | 0.00 | 0.00 | 0.00 | 65 | 1006.6 |
| 20260509211511 | 66 | 34 | 3.0 | 8.0 | 0.00 | 0.00 | 0.00 | 66 | 1006.8 |
| 20260509210017 | 65 | 46 | 3.0 | 6.0 | 0.00 | 0.00 | 0.00 | 67 | 1006.9 |
| 20260509204518 | 65 | 343 | 3.0 | 5.0 | 0.00 | 0.00 | 0.00 | 67 | 1007.0 |
| 20260509203018 | 65 | 31 | 3.0 | 6.0 | 0.00 | 0.00 | 0.00 | 66 | 1006.9 |
| 20260509200014 | 66 | 19 | 1.0 | 3.0 | 0.00 | 0.00 | 0.00 | 65 | 1007.0 |
| 20260509194520 | 66 | 60 | 3.0 | 9.0 | 0.00 | 0.00 | 0.00 | 66 | 1007.0 |
| 20260509193027 | 66 | 103 | 2.0 | 8.0 | 0.00 | 0.00 | 0.00 | 64 | 1007.1 |
| 20260509191537 | 66 | 85 | 3.0 | 7.0 | 0.00 | 0.00 | 0.00 | 65 | 1007.1 |
| 20260509190011 | 66 | 97 | 5.0 | 8.0 | 0.00 | 0.00 | 0.00 | 64 | 1007.3 |
| 20260509184531 | 65 | 115 | 3.0 | 7.0 | 0.00 | 0.00 | 0.00 | 67 | 1007.5 |
| 20260509183027 | 65 | 150 | 2.0 | 9.0 | 0.00 | 0.00 | 0.00 | 64 | 1007.6 |
| 20260509181524 | 64 | 106 | 4.0 | 8.0 | 0.00 | 0.00 | 0.00 | 65 | 1007.8 |
| 20260509180023 | 64 | 84 | 3.0 | 9.0 | 0.00 | 0.00 | 0.00 | 67 | 1008.4 |
| 20260509174521 | 63 | 104 | 3.0 | 11.0 | 0.00 | 0.00 | 0.00 | 67 | 1008.7 |
| 20260509173019 | 62 | 104 | 6.0 | 8.0 | 0.00 | 0.00 | 0.00 | 68 | 1008.9 |
| 20260509171520 | 62 | 148 | 1.0 | 6.0 | 0.00 | 0.00 | 0.00 | 72 | 1009.1 |
| 20260509170024 | 62 | 108 | 3.0 | 8.0 | 0.00 | 0.00 | 0.00 | 70 | 1009.2 |
| 20260509164525 | 62 | 78 | 2.0 | 7.0 | 0.00 | 0.00 | 0.00 | 68 | 1008.8 |
| 20260509163026 | 62 | 67 | 2.0 | 5.0 | 0.00 | 0.00 | 0.00 | 68 | 1008.9 |
| 20260509161521 | 62 | 322 | 2.0 | 4.0 | 0.00 | 0.00 | 0.00 | 68 | 1009.0 |
| 20260509160022 | 62 | 52 | 0.0 | 4.0 | 0.00 | 0.00 | 0.00 | 68 | 1009.3 |
| 20260509154525 | 61 | 144 | 2.0 | 8.0 | 0.00 | 0.00 | 0.00 | 70 | 1009.3 |
| 20260509151519 | 59 | 130 | 5.0 | 8.0 | 0.00 | 0.00 | 0.00 | 75 | 1009.6 |
| 20260509150022 | 58 | 119 | 3.0 | 4.0 | 0.00 | 0.00 | 0.00 | 82 | 1009.8 |
| 20260509144506 | 57 | 139 | 1.0 | 3.0 | 0.00 | 0.00 | 0.00 | 86 | 1009.6 |
| 20260509143012 | 56 | 55 | 1.0 | 3.0 | 0.00 | 0.00 | 0.00 | 88 | 1009.1 |
| 20260509141516 | 56 | 30 | 0.0 | 0.0 | 0.00 | 0.00 | 0.00 | 87 | 1009.2 |
| 20260509140021 | 56 | 89 | 0.0 | 3.0 | 0.00 | 0.00 | 0.00 | 87 | 1009.5 |
| 20260509134504 | 56 | 128 | 0.0 | 4.0 | 0.00 | 0.00 | 0.00 | 84 | 1009.4 |
| 20260509133006 | 57 | 323 | 1.0 | 3.0 | 0.00 | 0.00 | 0.00 | 81 | 1009.5 |
| 20260509131514 | 57 | 254 | 1.0 | 4.0 | 0.00 | 0.00 | 0.00 | 74 | 1009.1 |
| 20260509130029 | 57 | 185 | 2.0 | 9.0 | 0.00 | 0.00 | 0.00 | 72 | 1008.9 |
| 20260509124520 | 57 | 184 | 2.0 | 6.0 | 0.00 | 0.00 | 0.00 | 71 | 1008.9 |
| 20260509123004 | 56 | 136 | 3.0 | 9.0 | 0.00 | 0.00 | 0.00 | 72 | 1009.0 |
| 20260509121510 | 56 | 176 | 4.0 | 10.0 | 0.00 | 0.00 | 0.00 | 73 | 1008.9 |
| 20260509120013 | 56 | 160 | 2.0 | 7.0 | 0.00 | 0.00 | 0.00 | 73 | 1008.9 |
| 20260509114520 | 56 | 180 | 2.0 | 7.0 | 0.00 | 0.00 | 0.00 | 74 | 1008.7 |
| 20260509113025 | 55 | 178 | 1.0 | 5.0 | 0.00 | 0.00 | 0.00 | 74 | 1008.7 |
| 20260509111508 | 55 | 216 | 2.0 | 7.0 | 0.00 | 0.00 | 0.00 | 75 | 1008.6 |
| 20260509110012 | 55 | 233 | 2.0 | 7.0 | 0.00 | 0.00 | 0.00 | 76 | 1008.6 |
| 20260509104516 | 54 | 221 | 2.0 | 7.0 | 0.00 | 0.00 | 0.00 | 77 | 1008.4 |
| 20260509103021 | 53 | 182 | 0.0 | 3.0 | 0.00 | 0.00 | 0.00 | 80 | 1008.2 |
| 20260509101536 | 52 | 257 | 0.0 | 0.0 | 0.00 | 0.00 | 0.00 | 83 | 1008.5 |
| 20260509100010 | 52 | 352 | 0.0 | 2.0 | 0.00 | 0.00 | 0.00 | 86 | 1008.6 |
| 20260509094514 | 53 | 279 | 0.0 | 2.0 | 0.00 | 0.00 | 0.00 | 83 | 1008.3 |
| 20260509093022 | 53 | 279 | 0.0 | 0.0 | 0.00 | 0.00 | 0.00 | 82 | 1008.5 |
| 20260509091522 | 54 | 279 | 1.0 | 5.0 | 0.00 | 0.00 | 0.00 | 78 | 1008.5 |
| 20260509090036 | 53 | 169 | 0.0 | 3.0 | 0.00 | 0.00 | 0.00 | 79 | 1008.5 |
| 20260509084512 | 53 | 144 | 0.0 | 3.0 | 0.00 | 0.00 | 0.00 | 80 | 1008.5 |
| 20260509083029 | 53 | 217 | 0.0 | 0.0 | 0.00 | 0.00 | 0.00 | 79 | 1008.7 |
| 20260509081521 | 53 | 217 | 0.0 | 0.0 | 0.00 | 0.00 | 0.00 | 82 | 1008.6 |
| 20260509074526 | 53 | 208 | 0.0 | 0.0 | 0.00 | 0.00 | 0.00 | 80 | 1008.6 |
| 20260509071517 | 51 | 240 | 0.0 | 0.0 | 0.00 | 0.00 | 0.00 | 84 | 1008.7 |
| 20260509070020 | 51 | 279 | 0.0 | 0.0 | 0.00 | 0.00 | 0.00 | 86 | 1008.8 |
| 20260509063027 | 52 | 279 | 0.0 | 0.0 | 0.00 | 0.00 | 0.00 | 86 | 1009.0 |
| 20260509061521 | 52 | 279 | 0.0 | 3.0 | 0.00 | 0.00 | 0.00 | 85 | 1009.1 |
| 20260509060017 | 52 | 276 | 0.0 | 0.0 | 0.00 | 0.00 | 0.00 | 83 | 1009.2 |
| 20260509054524 | 51 | 211 | 0.0 | 4.0 | 0.00 | 0.00 | 0.00 | 84 | 1009.1 |
| 20260509053036 | 50 | 184 | 0.0 | 0.0 | 0.00 | 0.00 | 0.00 | 85 | 1008.9 |
| 20260509051527 | 51 | 180 | 0.0 | 0.0 | 0.00 | 0.00 | 0.00 | 83 | 1009.2 |
| 20260509050021 | 51 | 180 | 0.0 | 0.0 | 0.00 | 0.00 | 0.00 | 82 | 1009.5 |
| 20260509044521 | 51 | 145 | 0.0 | 0.0 | 0.00 | 0.00 | 0.00 | 82 | 1009.5 |
| 20260509043024 | 52 | 145 | 0.0 | 0.0 | 0.00 | 0.00 | 0.00 | 81 | 1009.7 |
| 20260509041525 | 52 | 146 | 0.0 | 0.0 | 0.00 | 0.00 | 0.00 | 82 | 1009.6 |
| 20260509040030 | 53 | 146 | 0.0 | 0.0 | 0.00 | 0.00 | 0.00 | 80 | 1009.7 |
| 20260509034520 | 54 | 236 | 0.0 | 1.0 | 0.00 | 0.00 | 0.00 | 76 | 1009.7 |
| 20260509033022 | 55 | 239 | 0.0 | 3.0 | 0.00 | 0.00 | 0.00 | 76 | 1009.7 |
| 20260509031547 | 55 | 126 | 1.0 | 3.0 | 0.00 | 0.00 | 0.00 | 74 | 1009.6 |
| 20260509030047 | 56 | 277 | 0.0 | 2.0 | 0.00 | 0.00 | 0.00 | 73 | 1009.9 |
| 20260509024529 | 57 | 227 | 1.0 | 4.0 | 0.00 | 0.00 | 0.00 | 72 | 1010.1 |
| 20260509023029 | 58 | 256 | 3.0 | 4.0 | 0.00 | 0.00 | 0.00 | 71 | 1010.2 |
| 20260509021534 | 59 | 248 | 0.0 | 0.0 | 0.00 | 0.00 | 0.00 | 66 | 1010.1 |
| 20260509020024 | 59 | 157 | 0.0 | 0.0 | 0.00 | 0.00 | 0.00 | 66 | 1009.8 |
| 20260509014526 | 59 | 157 | 0.0 | 4.0 | 0.00 | 0.00 | 0.00 | 67 | 1009.9 |
| 20260509013025 | 61 | 168 | 0.0 | 0.0 | 0.00 | 0.00 | 0.00 | 62 | 1009.8 |
| 20260509011522 | 62 | 98 | 0.0 | 2.0 | 0.00 | 0.00 | 0.00 | 55 | 1009.7 |
| 20260509010024 | 62 | 117 | 2.0 | 4.0 | 0.00 | 0.00 | 0.00 | 57 | 1009.7 |
| 20260509004529 | 63 | 141 | 1.0 | 3.0 | 0.00 | 0.00 | 0.00 | 56 | 1009.9 |
| 20260509003031 | 63 | 132 | 2.0 | 4.0 | 0.00 | 0.00 | 0.00 | 56 | 1009.6 |
| 20260509001526 | 65 | 240 | 0.0 | 4.0 | 0.00 | 0.00 | 0.00 | 49 | 1009.5 |
| 20260509000023 | 66 | 243 | 2.0 | 7.0 | 0.00 | 0.00 | 0.00 | 48 | 1009.5 |
| 20260508234525 | 66 | 300 | 2.0 | 4.0 | 0.00 | 0.00 | 0.00 | 47 | 1009.3 |
| 20260508233014 | 67 | 271 | 4.0 | 10.0 | 0.00 | 0.00 | 0.00 | 48 | 1009.1 |
| 20260508231518 | 67 | 288 | 5.0 | 9.0 | 0.00 | 0.00 | 0.00 | 46 | 1009.0 |
| 20260508230024 | 67 | 279 | 6.0 | 10.0 | 0.00 | 0.00 | 0.00 | 45 | 1009.0 |
| 20260508224525 | 67 | 276 | 6.0 | 14.0 | 0.00 | 0.00 | 0.00 | 45 | 1009.0 |